Hourly Data Report for September 25, 2017

All times are specified in Local Standard Time (LST). Add 1 hour to adjust for Daylight Saving Time where and when it is observed.

KAMLOOPS A
BRITISH COLUMBIA

50°42'09.000" N
120°26'55.000" W
345.30 m
1163781
71887
YKA

Download Data

Hourly Data (September 2017)
Hourly Data Report for September 25, 2017
Temp Definition
°C
Dew Point Temp Definition
°C
Rel Hum Definition
%
Wind Dir Definition
10's deg

Wind Spd Definition
km/h
Visibility Definition
km
Stn Press Definition
kPa
Hmdx Definition


Wind Chill Definition


Weather Definition


TIME
00:00 Legend Double Dagger 11.8 9.5 86 7 11 64.4 97.61     LegendNANA
01:00 Legend Double Dagger 11.3 8.7 84 7 12 64.4 97.62     Mainly Clear
02:00 Legend Double Dagger 10.5 8.5 87 31 4 64.4 97.62     LegendNANA
03:00 Legend Double Dagger 10.8 8.9 88 0 1 64.4 97.65     LegendNANA
04:00 Legend Double Dagger 11.4 9.1 85 36 1 64.4 97.66     Mostly Cloudy
05:00 Legend Double Dagger 11.4 9.2 86 18 3 64.4 97.67     Rain Showers
06:00 Legend Double Dagger 11.5 9.5 88 36 2 64.4 97.67     Rain Showers
07:00 Legend Double Dagger 11.5 9.8 90 10 5 64.4 97.68     Rain Showers
08:00 Legend Double Dagger 11.8 9.7 86 9 7 64.4 97.70     Rain Showers
09:00 Legend Double Dagger 13.0 9.9 81 10 7 64.4 97.71     LegendNANA
10:00 Legend Double Dagger 14.5 9.4 71 10 12 64.4 97.69     Mostly Cloudy
11:00 Legend Double Dagger 15.7 9.3 65 10 11 64.4 97.65     LegendNANA
12:00 Legend Double Dagger 16.8 8.7 59 7 7 64.4 97.64     LegendNANA
13:00 Legend Double Dagger 18.4 8.8 53 8 9 64.4 97.59     Mostly Cloudy
14:00 Legend Double Dagger 20.0 9.0 49 8 13 64.4 97.54     LegendNANA
15:00 Legend Double Dagger 20.4 9.1 48 9 13 64.4 97.49     LegendNANA
16:00 Legend Double Dagger 19.5 10.5 56 11 16 64.4 97.48     Mostly Cloudy
17:00 Legend Double Dagger 18.9 10.6 58 11 16 64.4 97.50     LegendNANA
18:00 Legend Double Dagger 17.3 11.1 67 12 16 64.4 97.57     LegendNANA
19:00 Legend Double Dagger 16.9 10.8 67 11 15 64.4 97.64     Mostly Cloudy
20:00 Legend Double Dagger 16.7 10.7 68 13 12 64.4 97.69     LegendNANA
21:00 Legend Double Dagger 15.7 11.1 74 14 9 64.4 97.74     LegendNANA
22:00 Legend Double Dagger 15.0 11.4 79 10 6 64.4 97.79     Mostly Cloudy
23:00 Legend Double Dagger 14.9 10.9 77 8 11 64.4 97.79     LegendNANA

Notes on Data Quality.

Legend

  • E = Estimated
  • M = Missing
  • NA = Not Available
  • ‡ = Partner data that is not subject to review by the National Climate Archives
Date modified: